| time (UTC) | temp F | wind direction | speed MPH | gust MPH | rain 1hr in | rain 24hr in | rain mn in | humidity % | barometer mb |
| 20260901123724 | 69 | 294 | 1.0 | 10.0 | 0.00 | 0.00 | 0.00 | 47 | 1023.5 |
| 20260901123217 | 70 | 311 | 2.0 | 11.0 | 0.00 | 0.00 | 0.00 | 47 | 1023.6 |
| 20260901122220 | 71 | 268 | 4.0 | 11.0 | 0.00 | 0.00 | 0.00 | 48 | 1023.6 |
| 20260901121729 | 70 | 68 | 4.0 | 11.0 | 0.00 | 0.00 | 0.00 | 48 | 1023.6 |
| 20260901121223 | 70 | 313 | 1.0 | 10.0 | 0.00 | 0.00 | 0.00 | 48 | 1023.6 |
| 20260901120724 | 70 | 355 | 2.0 | 11.0 | 0.00 | 0.00 | 0.00 | 48 | 1023.6 |
| 20260901120220 | 70 | 350 | 3.0 | 11.0 | 0.00 | 0.00 | 0.00 | 48 | 1023.7 |
| 20260901115724 | 69 | 278 | 4.0 | 11.0 | 0.00 | 0.00 | 0.00 | 48 | 1023.7 |
| 20260901115223 | 69 | 333 | 3.0 | 11.0 | 0.00 | 0.00 | 0.00 | 48 | 1023.7 |
| 20260901114722 | 70 | 281 | 3.0 | 11.0 | 0.00 | 0.00 | 0.00 | 47 | 1023.7 |
| 20260901114222 | 70 | 74 | 4.0 | 11.0 | 0.00 | 0.00 | 0.00 | 46 | 1023.8 |
| 20260901113726 | 70 | 280 | 2.0 | 11.0 | 0.00 | 0.00 | 0.00 | 47 | 1023.8 |
| 20260901113207 | 69 | 296 | 2.0 | 11.0 | 0.00 | 0.00 | 0.00 | 47 | 1023.8 |
| 20260901112728 | 69 | 328 | 3.0 | 11.0 | 0.00 | 0.00 | 0.00 | 46 | 1023.8 |
| 20260901111722 | 69 | 338 | 2.0 | 11.0 | 0.00 | 0.00 | 0.00 | 47 | 1023.8 |
| 20260901111221 | 69 | 322 | 4.0 | 11.0 | 0.00 | 0.00 | 0.00 | 50 | 1023.9 |
| 20260901110723 | 69 | 329 | 4.0 | 9.0 | 0.00 | 0.00 | 0.00 | 48 | 1023.8 |
| 20260901110225 | 68 | 305 | 2.0 | 12.0 | 0.00 | 0.00 | 0.00 | 50 | 1023.8 |
| 20260901105722 | 67 | 286 | 3.0 | 12.0 | 0.00 | 0.00 | 0.00 | 51 | 1023.8 |
| 20260901105217 | 67 | 290 | 5.0 | 12.0 | 0.00 | 0.00 | 0.00 | 49 | 1023.9 |
| 20260901104717 | 68 | 333 | 5.0 | 13.0 | 0.00 | 0.00 | 0.00 | 48 | 1024.0 |
| 20260901104219 | 68 | 290 | 3.0 | 13.0 | 0.00 | 0.00 | 0.00 | 52 | 1024.0 |
| 20260901103226 | 69 | 280 | 2.0 | 11.0 | 0.00 | 0.00 | 0.00 | 53 | 1024.0 |
| 20260901102209 | 68 | 317 | 4.0 | 12.0 | 0.00 | 0.00 | 0.00 | 55 | 1024.1 |
| 20260901101729 | 68 | 306 | 3.0 | 11.0 | 0.00 | 0.00 | 0.00 | 56 | 1024.1 |
| 20260901101209 | 68 | 244 | 1.0 | 7.0 | 0.00 | 0.00 | 0.00 | 57 | 1024.1 |
| 20260901100240 | 67 | 206 | 0.0 | 11.0 | 0.00 | 0.00 | 0.00 | 57 | 1024.1 |
| 20260901095722 | 66 | 205 | 1.0 | 11.0 | 0.00 | 0.00 | 0.00 | 58 | 1024.0 |
| 20260901095228 | 66 | 55 | 2.0 | 11.0 | 0.00 | 0.00 | 0.00 | 57 | 1024.1 |
| 20260901094728 | 67 | 300 | 2.0 | 7.0 | 0.00 | 0.00 | 0.00 | 59 | 1024.1 |
| 20260901094222 | 67 | 306 | 1.0 | 0.0 | 0.00 | 0.00 | 0.00 | 59 | 1024.1 |
| 20260901093710 | 66 | 323 | 0.0 | 6.0 | 0.00 | 0.00 | 0.00 | 61 | 1024.1 |
| 20260901093225 | 65 | 282 | 0.0 | 6.0 | 0.00 | 0.00 | 0.00 | 61 | 1024.1 |
| 20260901092722 | 65 | 325 | 1.0 | 10.0 | 0.00 | 0.00 | 0.00 | 61 | 1024.1 |
| 20260901092218 | 65 | 327 | 3.0 | 10.0 | 0.00 | 0.00 | 0.00 | 61 | 1024.1 |
| 20260901091724 | 66 | 329 | 4.0 | 10.0 | 0.00 | 0.00 | 0.00 | 61 | 1024.1 |
| 20260901091214 | 66 | 309 | 3.0 | 8.0 | 0.00 | 0.00 | 0.00 | 60 | 1024.1 |
| 20260901090707 | 66 | 78 | 1.0 | 8.0 | 0.00 | 0.00 | 0.00 | 60 | 1024.1 |
| 20260901090228 | 66 | 289 | 1.0 | 10.0 | 0.00 | 0.00 | 0.00 | 63 | 1024.0 |
| 20260901085219 | 65 | 342 | 4.0 | 10.0 | 0.00 | 0.00 | 0.00 | 61 | 1024.0 |
| 20260901084720 | 65 | 355 | 3.0 | 7.0 | 0.00 | 0.00 | 0.00 | 62 | 1024.0 |
| 20260901084217 | 65 | 173 | 2.0 | 7.0 | 0.00 | 0.00 | 0.00 | 62 | 1024.0 |
| 20260901083712 | 65 | 332 | 2.0 | 7.0 | 0.00 | 0.00 | 0.00 | 62 | 1024.0 |
| 20260901083230 | 65 | 0 | 1.0 | 4.0 | 0.00 | 0.00 | 0.00 | 64 | 1024.1 |
| 20260901082713 | 64 | 319 | 1.0 | 7.0 | 0.00 | 0.00 | 0.00 | 68 | 1024.0 |
| 20260901082211 | 63 | 253 | 2.0 | 7.0 | 0.00 | 0.00 | 0.00 | 68 | 1024.0 |
| 20260901081725 | 63 | 348 | 1.0 | 3.0 | 0.00 | 0.00 | 0.00 | 69 | 1024.0 |
| 20260901081219 | 63 | 239 | 0.0 | 0.0 | 0.00 | 0.00 | 0.00 | 72 | 1024.0 |
| 20260901080722 | 63 | 312 | 0.0 | 0.0 | 0.00 | 0.00 | 0.00 | 75 | 1023.9 |
| 20260901080219 | 62 | 172 | 0.0 | 0.0 | 0.00 | 0.00 | 0.00 | 75 | 1023.8 |
| 20260901075724 | 62 | 135 | 0.0 | 0.0 | 0.00 | 0.00 | 0.00 | 77 | 1023.8 |
| 20260901075221 | 61 | 172 | 0.0 | 0.0 | 0.00 | 0.00 | 0.00 | 78 | 1023.9 |
| 20260901074710 | 61 | 152 | 0.0 | 0.0 | 0.00 | 0.00 | 0.00 | 79 | 1023.9 |
| 20260901074214 | 60 | 151 | 0.0 | 0.0 | 0.00 | 0.00 | 0.00 | 79 | 1023.9 |
| 20260901073215 | 60 | 142 | 0.0 | 0.0 | 0.00 | 0.00 | 0.00 | 81 | 1023.7 |
| 20260901072722 | 60 | 182 | 0.0 | 0.0 | 0.00 | 0.00 | 0.00 | 80 | 1023.7 |
| 20260901072221 | 60 | 167 | 0.0 | 0.0 | 0.00 | 0.00 | 0.00 | 81 | 1023.7 |
| 20260901071751 | 59 | 54 | 0.0 | 0.0 | 0.00 | 0.00 | 0.00 | 82 | 1023.8 |
| 20260901071230 | 59 | 0 | 0.0 | 0.0 | 0.00 | 0.00 | 0.00 | 83 | 1023.8 |
| 20260901070726 | 58 | 0 | 0.0 | 0.0 | 0.00 | 0.00 | 0.00 | 85 | 1023.8 |
| 20260901070213 | 58 | 5 | 0.0 | 0.0 | 0.00 | 0.00 | 0.00 | 85 | 1023.8 |
| 20260901065719 | 57 | 5 | 0.0 | 0.0 | 0.00 | 0.00 | 0.00 | 86 | 1023.7 |
| 20260901065215 | 56 | 5 | 0.0 | 0.0 | 0.00 | 0.00 | 0.00 | 87 | 1023.8 |
| 20260901064716 | 56 | 5 | 0.0 | 0.0 | 0.00 | 0.00 | 0.00 | 87 | 1023.8 |
| 20260901064220 | 56 | 5 | 0.0 | 0.0 | 0.00 | 0.00 | 0.00 | 88 | 1023.8 |
| 20260901063711 | 55 | 5 | 0.0 | 0.0 | 0.00 | 0.00 | 0.00 | 89 | 1023.8 |
| 20260901063222 | 55 | 5 | 0.0 | 0.0 | 0.00 | 0.00 | 0.00 | 89 | 1023.8 |
| 20260901062725 | 55 | 5 | 0.0 | 0.0 | 0.00 | 0.00 | 0.00 | 88 | 1023.8 |
| 20260901062225 | 55 | 5 | 0.0 | 0.0 | 0.00 | 0.00 | 0.00 | 88 | 1023.7 |
| 20260901061219 | 54 | 5 | 0.0 | 0.0 | 0.00 | 0.00 | 0.00 | 89 | 1023.7 |
| 20260901060729 | 54 | 5 | 0.0 | 0.0 | 0.00 | 0.00 | 0.00 | 88 | 1023.7 |
| 20260901060232 | 54 | 69 | 0.0 | 0.0 | 0.00 | 0.00 | 0.00 | 89 | 1023.7 |
| 20260901055706 | 54 | 70 | 0.0 | 0.0 | 0.00 | 0.00 | 0.00 | 88 | 1023.6 |
| 20260901055216 | 54 | 70 | 0.0 | 0.0 | 0.00 | 0.00 | 0.00 | 88 | 1023.6 |
| 20260901054725 | 54 | 70 | 0.0 | 0.0 | 0.00 | 0.00 | 0.00 | 88 | 1023.5 |
| 20260901054219 | 54 | 70 | 0.0 | 0.0 | 0.00 | 0.00 | 0.00 | 88 | 1023.5 |
| 20260901053721 | 54 | 70 | 0.0 | 0.0 | 0.00 | 0.00 | 0.00 | 88 | 1023.5 |
| 20260901053215 | 54 | 70 | 0.0 | 0.0 | 0.00 | 0.00 | 0.00 | 87 | 1023.5 |
| 20260901052221 | 54 | 346 | 0.0 | 0.0 | 0.00 | 0.00 | 0.00 | 87 | 1023.4 |
| 20260901051722 | 54 | 346 | 0.0 | 0.0 | 0.00 | 0.00 | 0.00 | 87 | 1023.4 |
| 20260901051230 | 54 | 346 | 0.0 | 0.0 | 0.00 | 0.00 | 0.00 | 86 | 1023.4 |
| 20260901050735 | 55 | 346 | 0.0 | 0.0 | 0.00 | 0.00 | 0.00 | 86 | 1023.3 |
| 20260901045716 | 55 | 346 | 0.0 | 0.0 | 0.00 | 0.00 | 0.00 | 86 | 1023.3 |
| 20260901043713 | 55 | 346 | 0.0 | 0.0 | 0.00 | 0.00 | 0.00 | 86 | 1023.3 |
| 20260901043221 | 55 | 346 | 0.0 | 0.0 | 0.00 | 0.00 | 0.00 | 86 | 1023.3 |
| 20260901042718 | 55 | 346 | 0.0 | 0.0 | 0.00 | 0.00 | 0.00 | 86 | 1023.3 |
| 20260901042230 | 55 | 346 | 0.0 | 0.0 | 0.00 | 0.00 | 0.00 | 86 | 1023.3 |
| 20260901041716 | 55 | 346 | 0.0 | 0.0 | 0.00 | 0.00 | 0.00 | 86 | 1023.4 |
| 20260901041223 | 55 | 346 | 0.0 | 0.0 | 0.00 | 0.00 | 0.00 | 86 | 1023.4 |
| 20260901040716 | 55 | 346 | 0.0 | 0.0 | 0.00 | 0.00 | 0.00 | 86 | 1023.3 |
| 20260901035730 | 55 | 346 | 0.0 | 0.0 | 0.00 | 0.00 | 0.00 | 86 | 1023.3 |
| 20260901035226 | 55 | 346 | 0.0 | 0.0 | 0.00 | 0.00 | 0.00 | 86 | 1023.3 |
| 20260901034718 | 55 | 346 | 0.0 | 0.0 | 0.00 | 0.00 | 0.00 | 86 | 1023.3 |
| 20260901034231 | 55 | 346 | 0.0 | 0.0 | 0.00 | 0.00 | 0.00 | 86 | 1023.3 |
| 20260901033723 | 55 | 346 | 0.0 | 0.0 | 0.00 | 0.00 | 0.00 | 86 | 1023.3 |
| 20260901033212 | 55 | 346 | 0.0 | 0.0 | 0.00 | 0.00 | 0.00 | 86 | 1023.3 |
| 20260901032723 | 55 | 346 | 0.0 | 0.0 | 0.00 | 0.00 | 0.00 | 85 | 1023.3 |
| 20260901032216 | 55 | 346 | 0.0 | 0.0 | 0.00 | 0.00 | 0.00 | 85 | 1023.3 |
| 20260901031718 | 55 | 346 | 0.0 | 0.0 | 0.00 | 0.00 | 0.00 | 85 | 1023.3 |
| 20260901031214 | 55 | 346 | 0.0 | 0.0 | 0.00 | 0.00 | 0.00 | 85 | 1023.3 |
| 20260901030727 | 55 | 346 | 0.0 | 0.0 | 0.00 | 0.00 | 0.00 | 85 | 1023.3 |
| 20260901030218 | 55 | 346 | 0.0 | 0.0 | 0.00 | 0.00 | 0.00 | 85 | 1023.3 |
| 20260901025714 | 55 | 346 | 0.0 | 0.0 | 0.00 | 0.00 | 0.00 | 85 | 1023.3 |
| 20260901024726 | 56 | 346 | 0.0 | 0.0 | 0.00 | 0.00 | 0.00 | 85 | 1023.4 |
| 20260901024223 | 56 | 346 | 0.0 | 0.0 | 0.00 | 0.00 | 0.00 | 85 | 1023.4 |
| 20260901023717 | 56 | 346 | 0.0 | 0.0 | 0.00 | 0.00 | 0.00 | 85 | 1023.5 |
| 20260901023229 | 56 | 346 | 0.0 | 0.0 | 0.00 | 0.00 | 0.00 | 84 | 1023.5 |
| 20260901022713 | 56 | 346 | 0.0 | 0.0 | 0.00 | 0.00 | 0.00 | 84 | 1023.5 |
| 20260901022209 | 56 | 346 | 0.0 | 0.0 | 0.00 | 0.00 | 0.00 | 84 | 1023.4 |
| 20260901021728 | 56 | 346 | 0.0 | 0.0 | 0.00 | 0.00 | 0.00 | 83 | 1023.4 |
| 20260901021241 | 56 | 346 | 0.0 | 0.0 | 0.00 | 0.00 | 0.00 | 83 | 1023.4 |
| 20260901020740 | 56 | 346 | 0.0 | 0.0 | 0.00 | 0.00 | 0.00 | 82 | 1023.4 |
| 20260901020212 | 56 | 346 | 0.0 | 0.0 | 0.00 | 0.00 | 0.00 | 83 | 1023.4 |
| 20260901015724 | 56 | 346 | 0.0 | 0.0 | 0.00 | 0.00 | 0.00 | 83 | 1023.4 |
| 20260901014723 | 56 | 346 | 0.0 | 0.0 | 0.00 | 0.00 | 0.00 | 83 | 1023.4 |
| 20260901014222 | 56 | 346 | 0.0 | 0.0 | 0.00 | 0.00 | 0.00 | 83 | 1023.4 |
| 20260901013208 | 57 | 86 | 0.0 | 0.0 | 0.00 | 0.00 | 0.00 | 82 | 1023.4 |
| 20260901012719 | 57 | 86 | 0.0 | 0.0 | 0.00 | 0.00 | 0.00 | 82 | 1023.4 |
| 20260901012213 | 57 | 86 | 0.0 | 0.0 | 0.00 | 0.00 | 0.00 | 82 | 1023.3 |
| 20260901011721 | 57 | 86 | 0.0 | 0.0 | 0.00 | 0.00 | 0.00 | 82 | 1023.3 |
| 20260901010727 | 57 | 86 | 0.0 | 0.0 | 0.00 | 0.00 | 0.00 | 82 | 1023.2 |
| 20260901010223 | 57 | 86 | 0.0 | 0.0 | 0.00 | 0.00 | 0.00 | 82 | 1023.1 |
| 20260901005715 | 57 | 86 | 0.0 | 0.0 | 0.00 | 0.00 | 0.00 | 82 | 1023.2 |
| 20260901005213 | 57 | 355 | 0.0 | 0.0 | 0.00 | 0.00 | 0.00 | 82 | 1023.2 |
| 20260901004719 | 57 | 348 | 0.0 | 0.0 | 0.00 | 0.00 | 0.00 | 81 | 1023.2 |
| 20260901004213 | 57 | 333 | 0.0 | 0.0 | 0.00 | 0.00 | 0.00 | 81 | 1023.1 |
| 20260901003209 | 57 | 325 | 0.0 | 0.0 | 0.00 | 0.00 | 0.00 | 81 | 1023.2 |
| 20260901002728 | 57 | 325 | 0.0 | 0.0 | 0.00 | 0.00 | 0.00 | 80 | 1023.2 |
| 20260901002215 | 57 | 325 | 0.0 | 3.0 | 0.00 | 0.00 | 0.00 | 80 | 1023.3 |
| 20260901001723 | 57 | 113 | 0.0 | 3.0 | 0.00 | 0.00 | 0.00 | 80 | 1023.3 |
| 20260901001226 | 57 | 113 | 1.0 | 3.0 | 0.00 | 0.00 | 0.00 | 79 | 1023.2 |
| 20260901000712 | 57 | 155 | 1.0 | 2.0 | 0.00 | 0.00 | 0.00 | 79 | 1023.3 |
| 20260901000220 | 57 | 164 | 0.0 | 2.0 | 0.00 | 0.00 | 0.00 | 79 | 1023.3 |
| 20260831235723 | 57 | 164 | 0.0 | 2.0 | 0.00 | 0.00 | 0.00 | 79 | 1023.3 |
| 20260831235222 | 57 | 164 | 0.0 | 2.0 | 0.00 | 0.00 | 0.00 | 79 | 1023.3 |
| 20260831234715 | 57 | 164 | 0.0 | 2.0 | 0.00 | 0.01 | 0.00 | 78 | 1023.3 |
| 20260831234220 | 57 | 164 | 0.0 | 2.0 | 0.00 | 0.01 | 0.00 | 79 | 1023.2 |
| 20260831233719 | 57 | 48 | 0.0 | 2.0 | 0.00 | 0.02 | 0.00 | 79 | 1023.3 |
| 20260831233224 | 57 | 33 | 0.0 | 8.0 | 0.00 | 0.02 | 0.00 | 79 | 1023.3 |
| 20260831232722 | 57 | 36 | 1.0 | 8.0 | 0.00 | 0.05 | 0.00 | 80 | 1023.1 |
| 20260831232225 | 57 | 335 | 2.0 | 8.0 | 0.00 | 0.06 | 0.00 | 78 | 1023.1 |
| 20260831231719 | 56 | 350 | 2.0 | 8.0 | 0.00 | 0.06 | 0.00 | 78 | 1023.2 |
| 20260831230717 | 56 | 335 | 0.0 | 0.0 | 0.00 | 0.06 | 0.00 | 80 | 1023.1 |
| 20260831230237 | 56 | 323 | 0.0 | 0.0 | 0.00 | 0.07 | 0.00 | 80 | 1023.2 |
| 20260831225719 | 56 | 350 | 0.0 | 0.0 | 0.00 | 0.07 | 0.00 | 80 | 1023.3 |
| 20260831225233 | 56 | 5 | 0.0 | 0.0 | 0.00 | 0.07 | 0.00 | 80 | 1023.4 |
| 20260831224720 | 56 | 5 | 0.0 | 0.0 | 0.00 | 0.07 | 0.00 | 80 | 1023.4 |
| 20260831224212 | 56 | 5 | 0.0 | 0.0 | 0.00 | 0.07 | 0.00 | 78 | 1023.4 |
| 20260831223726 | 57 | 5 | 0.0 | 0.0 | 0.00 | 0.07 | 0.00 | 77 | 1023.5 |
| 20260831223217 | 57 | 44 | 0.0 | 0.0 | 0.00 | 0.12 | 0.00 | 76 | 1023.5 |
| 20260831222716 | 57 | 44 | 0.0 | 0.0 | 0.00 | 0.22 | 0.00 | 76 | 1023.5 |
| 20260831221719 | 58 | 341 | 0.0 | 0.0 | 0.00 | 0.31 | 0.00 | 75 | 1023.4 |
| 20260831221209 | 58 | 342 | 0.0 | 0.0 | 0.00 | 0.31 | 0.00 | 75 | 1023.4 |
| 20260831220720 | 58 | 355 | 0.0 | 0.0 | 0.00 | 0.31 | 0.00 | 74 | 1023.4 |
| 20260831220226 | 58 | 355 | 0.0 | 0.0 | 0.00 | 0.31 | 0.31 | 74 | 1023.4 |
| 20260831215211 | 59 | 336 | 0.0 | 0.0 | 0.00 | 0.31 | 0.31 | 73 | 1023.3 |
| 20260831214728 | 59 | 49 | 0.0 | 0.0 | 0.00 | 0.31 | 0.31 | 73 | 1023.3 |
| 20260831214220 | 59 | 37 | 0.0 | 0.0 | 0.00 | 0.31 | 0.31 | 72 | 1023.3 |
| 20260831213221 | 59 | 38 | 0.0 | 0.0 | 0.00 | 0.31 | 0.31 | 72 | 1023.3 |
| 20260831212725 | 59 | 38 | 0.0 | 0.0 | 0.00 | 0.31 | 0.31 | 72 | 1023.3 |
| 20260831211718 | 60 | 49 | 0.0 | 0.0 | 0.00 | 0.31 | 0.31 | 72 | 1023.4 |
| 20260831211219 | 60 | 302 | 0.0 | 0.0 | 0.00 | 0.31 | 0.31 | 71 | 1023.4 |
| 20260831210723 | 60 | 302 | 0.0 | 0.0 | 0.00 | 0.31 | 0.31 | 71 | 1023.4 |
| 20260831210224 | 60 | 302 | 0.0 | 0.0 | 0.00 | 0.31 | 0.31 | 70 | 1023.4 |
| 20260831205218 | 61 | 344 | 0.0 | 10.0 | 0.00 | 0.31 | 0.31 | 69 | 1023.2 |
| 20260831204717 | 61 | 121 | 0.0 | 10.0 | 0.00 | 0.31 | 0.31 | 68 | 1023.2 |
| 20260831204217 | 61 | 134 | 1.0 | 13.0 | 0.00 | 0.31 | 0.31 | 67 | 1023.1 |
| 20260831203718 | 61 | 99 | 2.0 | 13.0 | 0.00 | 0.31 | 0.31 | 67 | 1023.2 |
| 20260831203218 | 61 | 310 | 2.0 | 15.0 | 0.00 | 0.31 | 0.31 | 67 | 1023.2 |
| 20260831202214 | 62 | 72 | 2.0 | 15.0 | 0.00 | 0.31 | 0.31 | 66 | 1022.8 |
| 20260831201720 | 62 | 310 | 2.0 | 15.0 | 0.00 | 0.31 | 0.31 | 66 | 1022.8 |
| 20260831201219 | 62 | 64 | 0.0 | 2.0 | 0.00 | 0.31 | 0.31 | 67 | 1023.0 |
| 20260831200715 | 62 | 81 | 0.0 | 2.0 | 0.00 | 0.31 | 0.31 | 67 | 1022.8 |
| 20260831200223 | 62 | 168 | 0.0 | 7.0 | 0.00 | 0.31 | 0.31 | 66 | 1022.7 |
| 20260831195724 | 62 | 126 | 0.0 | 7.0 | 0.00 | 0.31 | 0.31 | 66 | 1022.7 |
| 20260831195217 | 62 | 110 | 0.0 | 0.0 | 0.00 | 0.31 | 0.31 | 66 | 1022.6 |
| 20260831194724 | 62 | 48 | 0.0 | 0.0 | 0.00 | 0.31 | 0.31 | 65 | 1022.6 |
| 20260831194216 | 63 | 121 | 0.0 | 10.0 | 0.00 | 0.31 | 0.31 | 66 | 1022.4 |
| 20260831193713 | 63 | 123 | 0.0 | 10.0 | 0.00 | 0.31 | 0.31 | 65 | 1022.3 |
| 20260831193226 | 63 | 105 | 1.0 | 10.0 | 0.00 | 0.31 | 0.31 | 65 | 1022.2 |
| 20260831192226 | 63 | 81 | 1.0 | 14.0 | 0.00 | 0.31 | 0.31 | 65 | 1022.2 |
| 20260831191721 | 62 | 20 | 2.0 | 14.0 | 0.00 | 0.31 | 0.31 | 65 | 1022.2 |
| 20260831191229 | 62 | 13 | 4.0 | 11.0 | 0.00 | 0.31 | 0.31 | 65 | 1022.3 |
| 20260831190714 | 62 | 0 | 2.0 | 11.0 | 0.00 | 0.31 | 0.31 | 65 | 1022.2 |
| 20260831190216 | 62 | 345 | 0.0 | 14.0 | 0.00 | 0.31 | 0.31 | 66 | 1022.1 |
| 20260831185721 | 62 | 5 | 1.0 | 14.0 | 0.00 | 0.31 | 0.31 | 66 | 1022.0 |
| 20260831185217 | 62 | 61 | 2.0 | 9.0 | 0.00 | 0.31 | 0.31 | 66 | 1022.0 |
| 20260831184710 | 62 | 71 | 3.0 | 9.0 | 0.00 | 0.31 | 0.31 | 66 | 1021.9 |
| 20260831184209 | 62 | 355 | 2.0 | 9.0 | 0.00 | 0.31 | 0.31 | 66 | 1021.8 |
| 20260831183718 | 62 | 9 | 1.0 | 9.0 | 0.00 | 0.31 | 0.31 | 66 | 1021.5 |
| 20260831183220 | 62 | 33 | 0.0 | 5.0 | 0.00 | 0.31 | 0.31 | 65 | 1021.5 |
| 20260831182226 | 63 | 326 | 0.0 | 5.0 | 0.00 | 0.31 | 0.31 | 65 | 1021.4 |
| 20260831181718 | 63 | 111 | 0.0 | 5.0 | 0.00 | 0.31 | 0.31 | 64 | 1021.3 |
| 20260831181222 | 63 | 349 | 0.0 | 0.0 | 0.00 | 0.31 | 0.31 | 64 | 1021.3 |
| 20260831180727 | 63 | 74 | 0.0 | 0.0 | 0.00 | 0.31 | 0.31 | 64 | 1021.2 |
| 20260831180233 | 63 | 329 | 0.0 | 14.0 | 0.00 | 0.31 | 0.31 | 64 | 1021.2 |
| 20260831175721 | 63 | 144 | 0.0 | 14.0 | 0.00 | 0.31 | 0.31 | 64 | 1021.2 |
| 20260831175223 | 64 | 309 | 3.0 | 14.0 | 0.00 | 0.31 | 0.31 | 63 | 1021.2 |
| 20260831174726 | 64 | 326 | 4.0 | 14.0 | 0.00 | 0.31 | 0.31 | 62 | 1021.2 |
| 20260831174224 | 64 | 346 | 3.0 | 10.0 | 0.00 | 0.31 | 0.31 | 62 | 1021.2 |
| 20260831173220 | 64 | 348 | 2.0 | 11.0 | 0.00 | 0.31 | 0.31 | 62 | 1021.2 |
| 20260831172717 | 64 | 351 | 2.0 | 11.0 | 0.00 | 0.31 | 0.31 | 61 | 1021.1 |
| 20260831172234 | 64 | 5 | 1.0 | 17.0 | 0.00 | 0.31 | 0.31 | 61 | 1021.2 |
| 20260831171720 | 64 | 265 | 3.0 | 17.0 | 0.00 | 0.31 | 0.31 | 60 | 1021.2 |
| 20260831171226 | 65 | 241 | 3.0 | 18.0 | 0.00 | 0.31 | 0.31 | 60 | 1021.3 |
| 20260831170713 | 65 | 50 | 3.0 | 18.0 | 0.00 | 0.31 | 0.31 | 60 | 1021.2 |
| 20260831170218 | 65 | 41 | 5.0 | 18.0 | 0.00 | 0.31 | 0.31 | 60 | 1021.3 |
| 20260831165729 | 65 | 355 | 4.0 | 18.0 | 0.00 | 0.31 | 0.31 | 59 | 1021.3 |
| 20260831165224 | 65 | 88 | 3.0 | 13.0 | 0.00 | 0.31 | 0.31 | 58 | 1021.4 |
| 20260831164724 | 66 | 331 | 4.0 | 13.0 | 0.00 | 0.31 | 0.31 | 57 | 1021.4 |
| 20260831164227 | 66 | 80 | 3.0 | 20.0 | 0.00 | 0.31 | 0.31 | 57 | 1021.4 |
| 20260831163707 | 66 | 319 | 2.0 | 20.0 | 0.00 | 0.31 | 0.31 | 57 | 1021.4 |
| 20260831163210 | 66 | 250 | 3.0 | 20.0 | 0.00 | 0.31 | 0.31 | 55 | 1021.5 |
| 20260831161716 | 68 | 84 | 7.0 | 22.0 | 0.00 | 0.31 | 0.31 | 53 | 1021.3 |
| 20260831161227 | 68 | 72 | 7.0 | 23.0 | 0.00 | 0.31 | 0.31 | 53 | 1021.3 |
| 20260831160723 | 69 | 314 | 6.0 | 23.0 | 0.00 | 0.31 | 0.31 | 53 | 1021.0 |
| 20260831160221 | 69 | 136 | 5.0 | 15.0 | 0.00 | 0.31 | 0.31 | 53 | 1020.9 |
| 20260831155725 | 68 | 65 | 4.0 | 15.0 | 0.00 | 0.31 | 0.31 | 55 | 1021.0 |
| 20260831154709 | 67 | 151 | 2.0 | 15.0 | 0.00 | 0.31 | 0.31 | 59 | 1020.5 |
| 20260831154227 | 67 | 140 | 3.0 | 21.0 | 0.00 | 0.31 | 0.31 | 62 | 1020.7 |
| 20260831153723 | 66 | 163 | 7.0 | 21.0 | 0.00 | 0.31 | 0.31 | 62 | 1020.8 |
| 20260831152720 | 66 | 317 | 6.0 | 15.0 | 0.00 | 0.31 | 0.31 | 61 | 1020.9 |
| 20260831152224 | 67 | 312 | 6.0 | 20.0 | 0.00 | 0.31 | 0.31 | 61 | 1020.9 |
| 20260831151217 | 66 | 46 | 5.0 | 15.0 | 0.00 | 0.31 | 0.31 | 62 | 1020.8 |
| 20260831150713 | 67 | 40 | 3.0 | 15.0 | 0.00 | 0.31 | 0.31 | 60 | 1020.9 |
| 20260831145717 | 67 | 334 | 5.0 | 19.0 | 0.00 | 0.31 | 0.31 | 61 | 1020.7 |
| 20260831145216 | 67 | 14 | 6.0 | 16.0 | 0.00 | 0.31 | 0.31 | 61 | 1020.6 |
| 20260831144219 | 67 | 84 | 4.0 | 16.0 | 0.00 | 0.31 | 0.31 | 60 | 1020.6 |
| 20260831143741 | 67 | 267 | 5.0 | 16.0 | 0.00 | 0.31 | 0.31 | 60 | 1020.6 |
| 20260831143226 | 67 | 24 | 4.0 | 20.0 | 0.00 | 0.31 | 0.31 | 61 | 1020.5 |
| 20260831142708 | 67 | 325 | 4.0 | 20.0 | 0.00 | 0.31 | 0.31 | 59 | 1020.7 |
| 20260831141728 | 67 | 355 | 9.0 | 24.0 | 0.00 | 0.31 | 0.31 | 59 | 1020.6 |
| 20260831141213 | 67 | 345 | 8.0 | 16.0 | 0.00 | 0.31 | 0.31 | 59 | 1020.6 |
| 20260831140713 | 67 | 345 | 5.0 | 16.0 | 0.00 | 0.31 | 0.31 | 59 | 1020.5 |
| 20260831140227 | 67 | 19 | 3.0 | 18.0 | 0.00 | 0.31 | 0.31 | 59 | 1020.6 |
| 20260831135222 | 67 | 239 | 6.0 | 26.0 | 0.00 | 0.31 | 0.31 | 58 | 1020.5 |
| 20260831134717 | 68 | 16 | 4.0 | 26.0 | 0.00 | 0.31 | 0.31 | 57 | 1020.6 |
| 20260831134226 | 68 | 71 | 6.0 | 20.0 | 0.00 | 0.31 | 0.31 | 57 | 1020.4 |
| 20260831133719 | 67 | 48 | 6.0 | 20.0 | 0.00 | 0.31 | 0.31 | 57 | 1020.6 |
| 20260831133217 | 68 | 5 | 7.0 | 16.0 | 0.00 | 0.31 | 0.31 | 57 | 1020.6 |
| 20260831132718 | 68 | 22 | 6.0 | 16.0 | 0.00 | 0.31 | 0.31 | 55 | 1020.7 |
| 20260831132233 | 68 | 13 | 4.0 | 14.0 | 0.00 | 0.31 | 0.31 | 56 | 1020.6 |
| 20260831131715 | 68 | 34 | 3.0 | 14.0 | 0.00 | 0.31 | 0.31 | 56 | 1020.6 |
| 20260831131208 | 69 | 327 | 3.0 | 11.0 | 0.00 | 0.31 | 0.31 | 55 | 1020.5 |
| 20260831130719 | 69 | 217 | 3.0 | 11.0 | 0.00 | 0.31 | 0.31 | 57 | 1020.5 |
| 20260831130217 | 69 | 143 | 4.0 | 13.0 | 0.00 | 0.31 | 0.31 | 57 | 1020.4 |
| 20260831125726 | 68 | 152 | 4.0 | 13.0 | 0.00 | 0.31 | 0.31 | 59 | 1020.4 |
| 20260831125228 | 68 | 163 | 4.0 | 15.0 | 0.00 | 0.31 | 0.31 | 57 | 1020.5 |
| 20260831124717 | 67 | 118 | 5.0 | 15.0 | 0.00 | 0.31 | 0.31 | 60 | 1020.3 |
| 20260831124218 | 68 | 204 | 7.0 | 16.0 | 0.00 | 0.31 | 0.31 | 56 | 1020.6 |